This demonstration page uses our WeatherBlox Daily Observations layout. Learn more.

Left ArrowRight Arrow

41.12389, -100.76542

Hourly Observations for March 12, 2015

Temp ( °F °C ) Dew Point ( °F °C ) Humidity (%) Winds ( mph kmh ) Pressure ( in mb ) Visibility ( mi km ) Precip ( " mm )
12:53 am 00:53 Clear 50 10 23 -5 35 35 E 12 19 30.11 1020 10 16 0.00 0.00
1:53 am 01:53 Clear 49 9.4 24 -4.4 38 38 ESE 9 15 30.11 1020 10 16 0.00 0.00
2:53 am 02:53 Clear 51 10.6 25 -3.9 36 36 SE 10 17 30.09 1019 10 16 0.00 0.00
3:53 am 03:53 Clear 49 9.4 25 -3.9 39 39 SSE 12 19 30.07 1018 10 16 0.00 0.00
4:53 am 04:53 Clear 46 7.8 26 -3.3 46 46 ESE 6 9 30.06 1018 10 16 0.00 0.00
5:53 am 05:53 Clear 43 6.1 26 -3.3 51 51 ENE 5 7 30.06 1018 10 16 0.00 0.00
6:53 am 06:53 Clear 39 3.9 26 -3.3 60 60 E 5 7 30.08 1019 10 16 0.00 0.00
7:53 am 07:53 Clear 33 0.6 25 -3.9 72 72 ESE 7 11 30.11 1020 10 16 0.00 0.00
8:53 am 08:53 Sunny 38 3.3 28 -2.2 68 68 SE 5 7 30.12 1020 10 16 0.00 0.00
9:53 am 09:53 Sunny 47 8.3 28 -2.2 48 48 VRB 3 6 30.11 1020 10 16 0.00 0.00
10:53 am 10:53 Sunny 55 12.8 28 -2.2 35 35 SSW 7 11 30.10 1019 10 16 0.00 0.00
11:53 am 11:53 Sunny 61 16.1 29 -1.7 30 30 Calm 30.09 1019 10 16 0.00 0.00
12:53 pm 12:53 Sunny 67 19.4 28 -2.2 23 23 WSW 8 13 30.07 1018 10 16 0.00 0.00
1:53 pm 13:53 Sunny 69 20.6 29 -1.7 22 22 WNW 10 17 30.06 1018 10 16 0.00 0.00
2:53 pm 14:53 Sunny 73 22.8 28 -2.2 19 19 SW 12 19 30.01 1016 10 16 0.00 0.00
3:53 pm 15:53 Sunny 72 22.2 28 -2.2 19 19 WSW 10 17 30.00 1016 10 16 0.00 0.00
4:53 pm 16:53 Sunny 75 23.9 27 -2.8 17 17 WSW 8 13 30.00 1016 10 16 0.00 0.00
5:53 pm 17:53 Sunny 72 22.2 27 -2.8 19 19 WSW 7 11 30.00 1016 10 16 0.00 0.00
6:53 pm 18:53 Sunny 69 20.6 28 -2.2 22 22 W 3 6 30.02 1017 10 16 0.00 0.00
7:53 pm 19:53 Clear 63 17.2 27 -2.8 26 26 Calm 30.06 1018 10 16 0.00 0.00
8:53 pm 20:53 Clear 51 10.6 31 -0.6 46 46 Calm 30.10 1019 10 16 0.00 0.00
9:53 pm 21:53 Clear 52 11.1 29 -1.7 41 41 VRB 3 6 30.10 1019 10 16 0.00 0.00
10:53 pm 22:53 Clear 54 12.2 25 -3.9 33 33 NNE 7 11 30.11 1020 10 16 0.00 0.00
11:53 pm 23:53 Clear 47 8.3 25 -3.9 42 42 N 3 6 30.12 1020 10 16 0.00 0.00

Powered by AerisWeather